Simultaneous Nadir Overpasses (SNOs) Predictions

Prediction of SNOs between GOES-15 and NPP Satellite Orbit:

Table of predicted SNOs for the next 14.0 days since TLE Epoch: 8/10/2012
Index Date Time (GOES-15) GOES-15 Lat,Lon NPP Lat,Lon Distance(km) Time Diff (sec)
1 08/10/2012 22:25:40 -0.44,-134.96 -0.66,-135.85 102.09 80
2 08/11/2012 22:09:35 -0.43,-134.93 0.37,-131.32 410.78 80
3 08/13/2012 10:31:22 0.43,-134.86 0.83,-136.59 196.76 80
4 08/14/2012 10:09:58 0.43,-134.82 -0.21,-132.06 315.13 80
5 08/15/2012 22:31:53 -0.43,-134.77 -1.00,-137.36 295.05 80
6 08/16/2012 22:15:48 -0.43,-134.73 -0.02,-132.82 217.27 80
7 08/18/2012 10:37:35 0.43,-134.67 1.20,-138.09 390.06 80
8 08/19/2012 10:16:10 0.42,-134.63 0.21,-133.56 121.41 80
9 08/20/2012 22:38:05
